Texico, NM

5:39 PM MDT on July 25, 2016 (GMT -0600)
Clovis Municipal

Weather History for KCVN - December, 2013

Change the Weather History Date:

Sunday, December 8, 2013

  Actual Average Record
Temperature  
Mean Temperature 32 °F -  
Max Temperature 46 °F 54 °F 74 °F (1933)
Min Temperature 19 °F 25 °F 0 °F (2005)
Degree Days  
Heating Degree Days 32    
Moisture  
Dew Point 19 °F    
Average Humidity 69    
Maximum Humidity 93    
Minimum Humidity 43    
Precipitation  
Precipitation 0.00 in - - ()
Sea Level Pressure  
Sea Level Pressure 29.93 in    
Wind  
Wind Speed 12 mph (WSW)    
Max Wind Speed 23 mph    
Max Gust Speed 31 mph    
Visibility 7 miles    
Events      
Averages and records for this station are not official NWS values.
T = Trace of Precipitation, MM = Missing Value Source: NWS Daily Summary

Daily Weather History Graph

Daily Weather History Graph

Search for Another Location

Airport or City:

Trip Planner

Search our weather history database for the weather conditions in past years. The results will help you decide how hot, cold, wet, or windy it might be!

Date:

Astronomy

Dec. 08, 2013 Rise Set
Actual Time 6:46 AM MST 4:42 PM MST
Civil Twilight 6:18 AM MST 5:09 PM MST
Nautical Twilight 5:47 AM MST 5:41 PM MST
Astronomical Twilight 5:17 AM MST 6:11 PM MST
Moon 11:20 AM MST (12/8) 11:20 PM MST (12/8)
Length of Visible Light 10h 50m
Length of Day
9h 55m
Waxing Crescent, 40% of the Moon is Illuminated
Dec 8
Waxing Crescent
Dec 9
First Quarter
Dec 17
Full
Dec 25
Last Quarter
Jan 1
New

Hourly Weather History & Observations

Time (MST) Temp. Windchill Dew Point Humidity Pressure Visibility Wind Dir Wind Speed Gust Speed Precip Events Conditions
12:15 AM 19.4 °F 6.6 °F 14.0 °F 80% 29.94 in 0.8 mi SSW 12.7 mph - N/A   Overcast
12:35 AM 19.4 °F 6.0 °F 15.8 °F 86% 29.93 in 1.0 mi SSW 13.8 mph - N/A   Overcast
12:55 AM 19.4 °F 6.6 °F 15.8 °F 86% 29.93 in 1.0 mi SSW 12.7 mph - N/A   Overcast
1:15 AM 19.4 °F 6.6 °F 15.8 °F 86% 29.92 in 1.0 mi SSW 12.7 mph - N/A   Overcast
1:35 AM 19.4 °F 7.9 °F 15.8 °F 86% 29.91 in 1.2 mi SSW 10.4 mph - N/A   Overcast
1:55 AM 21.2 °F 9.5 °F 15.8 °F 80% 29.91 in 2.5 mi SSW 11.5 mph - N/A   Overcast
2:15 AM 21.2 °F 10.1 °F 15.8 °F 80% 29.91 in 2.0 mi SW 10.4 mph - N/A   Overcast
2:35 AM 21.2 °F 10.9 °F 17.6 °F 86% 29.90 in 1.8 mi SW 9.2 mph - N/A   Overcast
2:55 AM 21.2 °F 8.9 °F 17.6 °F 86% 29.90 in 1.8 mi SW 12.7 mph - N/A   Overcast
3:15 AM 21.2 °F 8.9 °F 17.6 °F 86% 29.90 in 2.0 mi SW 12.7 mph 16.1 mph N/A   Overcast
3:35 AM 21.2 °F 8.9 °F 17.6 °F 86% 29.90 in 2.0 mi SW 12.7 mph - N/A   Overcast
3:55 AM 21.2 °F 8.3 °F 17.6 °F 86% 29.89 in 8.0 mi SW 13.8 mph - N/A   Overcast
4:15 AM 21.2 °F 7.3 °F 17.6 °F 86% 29.88 in 7.0 mi SW 16.1 mph - N/A   Overcast
4:35 AM 21.2 °F 7.8 °F 17.6 °F 86% 29.88 in 4.0 mi SW 15.0 mph - N/A   Overcast
4:55 AM 21.2 °F 8.9 °F 17.6 °F 86% 29.88 in 5.0 mi SSW 12.7 mph - N/A   Overcast
5:15 AM 21.2 °F 8.9 °F 17.6 °F 86% 29.88 in 5.0 mi SW 12.7 mph - N/A   Overcast
5:35 AM 21.2 °F 9.5 °F 17.6 °F 86% 29.88 in 8.0 mi SW 11.5 mph - N/A   Overcast
5:55 AM 21.2 °F 8.9 °F 17.6 °F 86% 29.88 in 5.0 mi SSW 12.7 mph - N/A   Overcast
6:15 AM 21.2 °F 10.1 °F 17.6 °F 86% 29.88 in 5.0 mi SW 10.4 mph - N/A   Overcast
6:35 AM 21.2 °F 9.5 °F 17.6 °F 86% 29.87 in 3.0 mi SSW 11.5 mph - N/A   Overcast
6:55 AM 21.2 °F 11.7 °F 17.6 °F 86% 29.88 in 1.5 mi SW 8.1 mph - N/A   Overcast
7:15 AM 21.2 °F 10.1 °F 17.6 °F 86% 29.88 in 1.0 mi SW 10.4 mph - N/A   Overcast
7:35 AM 21.2 °F 10.9 °F 17.6 °F 86% 29.88 in 1.5 mi SW 9.2 mph - N/A   Overcast
7:55 AM 21.2 °F 11.7 °F 17.6 °F 86% 29.88 in 0.5 mi SW 8.1 mph - N/A   Overcast
8:15 AM 21.2 °F 11.7 °F 17.6 °F 86% 29.88 in 0.8 mi SW 8.1 mph - N/A   Overcast
8:35 AM 21.2 °F 10.9 °F 17.6 °F 86% 29.88 in 1.0 mi SW 9.2 mph - N/A   Overcast
8:55 AM 24.8 °F 15.3 °F 19.4 °F 80% 29.89 in 7.0 mi SW 9.2 mph - N/A   Overcast
9:15 AM 24.8 °F 15.3 °F 21.2 °F 86% 29.90 in 10.0 mi SSW 9.2 mph - N/A   Overcast
9:35 AM 26.6 °F 16.8 °F 23.0 °F 86% 29.90 in 10.0 mi SW 10.4 mph - N/A   Scattered Clouds
9:55 AM 28.4 °F 18.5 °F 24.8 °F 86% 29.90 in 10.0 mi SW 11.5 mph - N/A   Clear
10:15 AM 28.4 °F 18.0 °F 26.6 °F 93% 29.90 in 10.0 mi WSW 12.7 mph - N/A   Clear
10:35 AM 30.2 °F 19.8 °F 26.6 °F 86% 29.90 in 10.0 mi SW 13.8 mph - N/A   Clear
10:55 AM 33.8 °F 24.3 °F 26.6 °F 75% 29.91 in 10.0 mi SW 13.8 mph - N/A   Clear
11:15 AM 37.4 °F 28.5 °F 26.6 °F 65% 29.90 in 10.0 mi SW 15.0 mph - N/A   Clear
11:35 AM 41.0 °F 33.9 °F 24.8 °F 53% 29.90 in 10.0 mi WSW 12.7 mph - N/A   Clear
11:55 AM 42.8 °F 34.3 °F 23.0 °F 46% 29.89 in 10.0 mi WSW 19.6 mph 24.2 mph N/A   Clear
12:15 PM 44.6 °F 36.6 °F 24.8 °F 46% 29.88 in 10.0 mi WSW 19.6 mph - N/A   Clear
12:35 PM 46.4 °F 38.7 °F 24.8 °F 43% 29.88 in 10.0 mi WSW 20.7 mph - N/A   Clear
12:55 PM 46.4 °F 38.5 °F 24.8 °F 43% 29.88 in 10.0 mi WSW 21.9 mph 28.8 mph N/A   Clear
1:15 PM 46.4 °F 38.7 °F 24.8 °F 43% 29.89 in 10.0 mi West 20.7 mph 27.6 mph N/A   Clear
1:35 PM 46.4 °F 38.3 °F 24.8 °F 43% 29.90 in 10.0 mi West 23.0 mph 31.1 mph N/A   Partly Cloudy
1:55 PM 46.4 °F 39.0 °F 24.8 °F 43% 29.90 in 10.0 mi West 19.6 mph 26.5 mph N/A   Clear
2:15 PM 46.4 °F 40.1 °F 26.6 °F 46% 29.90 in 10.0 mi West 15.0 mph - N/A   Clear
2:35 PM 46.4 °F 39.2 °F 26.6 °F 46% 29.91 in 10.0 mi West 18.4 mph - N/A   Clear
2:55 PM 44.6 °F 36.9 °F 24.8 °F 46% 29.91 in 10.0 mi West 18.4 mph 21.9 mph N/A   Clear
3:15 PM 44.6 °F 38.1 °F 24.8 °F 46% 29.92 in 10.0 mi West 13.8 mph - N/A   Clear
3:35 PM 44.6 °F 38.8 °F 24.8 °F 46% 29.93 in 10.0 mi West 11.5 mph - N/A   Scattered Clouds
3:55 PM 42.8 °F 34.8 °F 24.8 °F 49% 29.93 in 10.0 mi West 17.3 mph 21.9 mph N/A   Partly Cloudy
4:15 PM 41.0 °F 34.3 °F 24.8 °F 53% 29.94 in 10.0 mi WNW 11.5 mph - N/A   Clear
4:35 PM 39.2 °F 33.6 °F 21.2 °F 49% 29.94 in 10.0 mi WNW 8.1 mph - N/A   Clear
4:55 PM 35.6 °F 32.8 °F 21.2 °F 56% 29.95 in 10.0 mi WNW 3.5 mph - N/A   Clear
5:15 PM 32.0 °F 27.5 °F 17.6 °F 55% 29.94 in 10.0 mi West 4.6 mph - N/A   Clear
5:35 PM 30.2 °F 24.3 °F 19.4 °F 64% 29.95 in 10.0 mi West 5.8 mph - N/A   Clear
5:55 PM 33.8 °F 27.0 °F 19.4 °F 56% 29.96 in 10.0 mi West 8.1 mph - N/A   Clear
6:15 PM 33.8 °F 27.0 °F 19.4 °F 56% 29.97 in 10.0 mi West 8.1 mph - N/A   Clear
6:35 PM 30.2 °F 24.3 °F 17.6 °F 60% 29.98 in 10.0 mi West 5.8 mph - N/A   Clear
6:55 PM 28.4 °F 24.6 °F 17.6 °F 64% 29.98 in 10.0 mi WSW 3.5 mph - N/A   Clear
7:15 PM 28.4 °F 24.6 °F 15.8 °F 59% 29.99 in 10.0 mi West 3.5 mph - N/A   Clear
7:35 PM 26.6 °F 19.1 °F 15.8 °F 64% 30.00 in 10.0 mi WNW 6.9 mph - N/A   Clear
7:55 PM 26.6 °F 21.2 °F 15.8 °F 64% 30.01 in 10.0 mi WNW 4.6 mph - N/A   Clear
8:15 PM 24.8 °F 17.9 °F 14.0 °F 64% 30.01 in 10.0 mi West 5.8 mph - N/A   Clear
8:35 PM 24.8 °F 16.1 °F 14.0 °F 64% 30.00 in 10.0 mi WNW 8.1 mph - N/A   Clear
8:55 PM 26.6 °F 18.2 °F 17.6 °F 69% 29.99 in 10.0 mi WNW 8.1 mph - N/A   Clear
9:15 PM 28.4 °F 20.4 °F 17.6 °F 64% 29.98 in 10.0 mi NW 8.1 mph - N/A   Clear
9:35 PM 28.4 °F 21.2 °F 15.8 °F 59% 29.98 in 10.0 mi NW 6.9 mph - N/A   Clear
9:55 PM 26.6 °F 18.2 °F 15.8 °F 64% 29.99 in 10.0 mi NW 8.1 mph - N/A   Clear
10:15 PM 24.8 °F 16.9 °F 15.8 °F 69% 29.99 in 10.0 mi NW 6.9 mph - N/A   Clear
10:35 PM 26.6 °F 18.2 °F 15.8 °F 64% 30.01 in 10.0 mi North 8.1 mph - N/A   Clear
10:55 PM 23.0 °F 11.7 °F 14.0 °F 68% 30.01 in 10.0 mi NNE 11.5 mph - N/A   Clear
11:15 PM 23.0 °F 10.6 °F 12.2 °F 63% 30.03 in 10.0 mi NE 13.8 mph - N/A   Clear
11:35 PM 21.2 °F 8.9 °F 12.2 °F 68% 30.02 in 10.0 mi NE 12.7 mph - N/A   Clear
11:55 PM 21.2 °F 9.5 °F 12.2 °F 68% 30.03 in 10.0 mi NE 11.5 mph - N/A   Clear